Regional Weather Roundup
Issued by NWS

Home | Current Version | Previous Version | Graphics & Text | Print | Product List | Glossary On
Versions: 1 2 3 4 5 6 7 8 9 10 11 12 13 14 15 16 17 18 19 20 21 22 23 24 25 26 27 28 29 30 31 32 33 34 35 36 37 38 39 40 41 42 43 44 45 46 47 48 49 50
000
ASUS45 KBOU 200307
RWRCO

WEATHER ROUNDUP FOR COLORADO
NATIONAL WEATHER SERVICE DENVER/BOULDER CO
900 PM MDT FRI SEP 19 2014

NOTE: "FAIR" INDICATES FEW OR NO CLOUDS BELOW 12000 FEET WITH NO
SIGNIFICANT WEATHER AND/OR OBSTRUCTIONS TO VISIBILITY.

COZ001>005-013-030-031-200400-
...NORTHWEST COLORADO...

CITY           SKY/WX    TMP DP  RH WIND       PRES   REMARKS
CRAIG          MOCLDY    61  45  55 CALM      30.15R
HAYDEN         MOCLDY    64  41  42 SW5       30.16R
MEEKER         NOT AVBL
MOUNT WERNER   NOT AVBL
STEAMBOAT SPGS MOCLDY    64  44  48 CALM      30.18R
WALDEN         CLEAR     55  37  50 N6        30.27R
$$

COZ006>008-011-200400-
...WEST CENTRAL VALLEYS...

CITY           SKY/WX    TMP DP  RH WIND       PRES   REMARKS
GRAND JUNCTION CLEAR     77  41  27 N6        29.99R
MONTROSE       CLEAR     69  46  43 SE9       30.09R
EAGLE          PTCLDY    66  43  42 CALM      30.17R
RIFLE          CLEAR     74  44  34 VRB3      30.06R
DELTA          CLEAR     74  40  28 NE7       30.02R
NUCLA          CLEAR     72  41  33 CALM      30.12R
$$

COZ017>023-064>068-200400-
...SOUTHWEST COLORADO...

CITY           SKY/WX    TMP DP  RH WIND       PRES   REMARKS
DURANGO        CLEAR     71  40  32 N10       30.12R
CORTEZ         CLEAR     66  46  48 E7        30.09R
PAGOSA SPRINGS LGT RAIN  60  48  66 NE7       30.24S
TELLURIDE      NOT AVBL
WOLF CREEK PAS CLOUDY    46  32  57 SW15      30.54R
$$

COZ009-010-012-014-032>034-037-058>063-200400-
...CENTRAL COLORADO...

CITY           SKY/WX    TMP DP  RH WIND       PRES   REMARKS
ASPEN          CLEAR     57  41  55 S7        30.24R
BUENA VISTA    LGT RAIN  63  37  38 SW8       30.25R
COPPER MTN     PTCLDY    54  32  43 W14       30.57R
BERTHOUD PASS  FAIR      43  41  93 NW15      30.60S
COTTONWOOD PAS MOCLDY    63  30  29 SW6       30.40R
GUNNISON       CLEAR     61  39  44 CALM      30.24R
KREMMLING      PTCLDY    64  36  34 CALM      30.24R
LEADVILLE      PTCLDY    50  32  50 NE6       30.39R
SALIDA         MOCLDY    64  39  39 NW9       30.29R
SUNLIGHT       CLEAR     57  41  54 N5        30.48S
WILKERSON PASS NOT AVBL
$$

COZ069>075-200400-
...SAN LUIS VALLEY/SANGRE DE CRISTO MOUNTAINS...

CITY           SKY/WX    TMP DP  RH WIND       PRES   REMARKS
ALAMOSA        PTCLDY    62  33  33 SE9       30.17R
LA VETA PASS   CLEAR     55  27  33 NE10      30.39R
SAGUACHE       NOT AVBL
$$

COZ035-036-038>040-200400-
...NORTHERN COLORADO FRONT RANGE...

CITY           SKY/WX    TMP DP  RH WIND       PRES   REMARKS
DENVER INTL AP CLOUDY    70  49  47 NE14      30.04R
DMNS CITY PARK   N/A     72  46  39 NE6       30.04R
AURORA         PTCLDY    68  44  41 SE8       30.05R
FRONT RANGE AP MOCLDY    73  46  38 NE9G16    30.05
ERIE MUNI ARPT PTCLDY    73  46  38 E6        30.02R
BOULDER MUN AP PTCLDY    72  46  40 W3        30.04R
CENTENNIAL     PTCLDY    68  45  43 S6        30.06R
BROOMFIELD     PTCLDY    73  45  35 N10       30.06R
FORT COLLINS   CLOUDY    72  48  43 N3        30.04R
LONGMONT       CLOUDY    72  49  44 W7        30.04R
$$

COZ041-046-047-076>085-087-088-200400-
...PIKES PEAK/PALMER DIVIDE AND SOUTHERN FOOTHILLS...

CITY           SKY/WX    TMP DP  RH WIND       PRES   REMARKS
COLO. SPRINGS  MOCLDY    72  40  31 CALM      30.10R
A. F. ACADEMY  MOCLDY    62  40  44 N8        30.13R
ELLICOTT       NOT AVBL
FALCON         MOCLDY    60  42  50 W3        30.15R
FORT CARSON    MOCLDY    72  40  31 SW3       30.06R
LIMON          CLEAR     58  40  51 N6        30.03R
MONUMENT HILL  PTCLDY    61  37  41 S8        30.15R
TRINIDAD       CLEAR     69  48  47 SW12      30.04R
$$

COZ042>045-048>051-090-091-200400-
...NORTHEAST COLORADO...

CITY           SKY/WX    TMP DP  RH WIND       PRES   REMARKS
GREELEY ARPT   CLOUDY    72  48  43 NE9       30.01R
AKRON          PTCLDY    71  46  40 N12       29.99R
BURLINGTON     CLEAR     72  57  59 S13       29.96R
WRAY           CLOUDY    75  56  52 CALM      29.91R
STERLING       PTCLDY    70  63  78 SW7       29.94R
HOLYOKE        CLOUDY    73  55  53 E5        29.91F
FORT MORGAN    MOCLDY    70  49  48 N24G39    30.01R THUNDER HAZE
$$

COZ086-089-092>099-200400-
...SOUTHEAST COLORADO...

CITY           SKY/WX    TMP DP  RH WIND       PRES   REMARKS
PUEBLO         CLEAR     71  34  25 CALM      29.96R
LA JUNTA       CLEAR     77  55  46 S8        29.92R
LAMAR          CLEAR     75  60  59 S17G28    29.91R
SPRINGFIELD      N/A     67  61  81 S17G24    30.00R
$$


USA.gov is the U.S. government's official web portal to all federal, state and local government web resources and services.